Showing default

LES 6, 3431

Orbit data source: Space-Track

LES 6, 3431 is a payload satellite owned by SAMSO (US) in GEO that was launched on Thu, 26 Sep 1968 UTC via a TITAN IIIC launch vehicle from the Air Force Eastern Test Range (AFETR). Payload-class satellites include a variety of spacecraft equipped with specific instruments for various scientific and technological missions. These include communications satellites like Starlink; space stations such as the ISS; scientific satellites like the Hubble; Earth observation satellites from companies like Planet Labs, Umbra, and HawkEye 360; GPS; miniature CubeSats for education and research; and military/defense satellites.

Loading next visibility...
Identifier
3431, 1968-081D
Orbit
GEO
Country
Flag of USUS
Related business
Manufacturer
MIT-LL
Mission
Non-operational spacecraft
Bus & Motor
LES, Unknown motor
Mass
169 kg wet, ~149 kg dry
Launch date (UTC)
1968-09-26 (58 years ago)
Launch vehicle
TITAN IIIC
Launch site
Air Force Eastern Test Range (AFETR)
Object type
Payload
Rocket body
Debris
Shape & HBR
Unknown
Radar Cross Section
Large (>1 m²)

Expand to show TLE details & history
Last TLE update: 11 hours ago

TLE from 11 hours ago
0 LES 6
1  3431U 68081D   26132.65069397  .00000125  00000-0  00000+0 0  9990
2  3431   1.4788  38.7560 0009395 304.4696 338.4115  1.00310754120423
Epoch: 2026-05-12T15:36Z
TLE epoch observation values (Epoch: 2026-05-12T15:36:59.959Z)
Latitude
-1.42778°
Longitude
-143.08319°
Altitude
35,738.701 km
Speed
3.078 km/s
True Right ascension
21h 26m 21s
True Declination
-1° 25' 35"
Sunlit
Object was in daylight at epoch
Visualization orbit readout
Latitude
Unknown
Longitude
Unknown
Altitude
Unknown
Speed
Unknown
Apparent Right ascension
Unknown
Apparent Declination
Unknown
Sunlit
N/A
Visualization observer readout
Local Sidereal Time
10:40:30
Azimuth
Unknown
Elevation
Unknown
Doppler factor
Unknown
Orbital elements
Apogee altitude
35,816.348 km
Perigee altitude
35,737.139 km
Semi-major axis
42,154.881 km
Eccentricity
0.00094
Inclination
1.4788°
RAAN
38.756°
Arg. of periapsis
304.4696°
True anomaly
338.37184°
Mean anomaly
338.4115°
Eccentric anomaly
338.39168°
Mean motion
0.25077 °/min
Orbital period
1,435.59 mins
BSTAR
0
Loading maneuver chart data...
Computing Atmospheric mass density...

Documentation

Showing up to 5 results
|